TimeMDT,TemperatureF,Dew PointF,Humidity,Sea Level PressureIn,VisibilityMPH,Wind Direction,Wind SpeedMPH,Gust SpeedMPH,PrecipitationIn,Events,Conditions,WindDirDegrees,DateUTC
12:53 AM,78.1,35.1,21,29.79,10.0,SSE,15.0,23.0,0.00,,Clear,160,2013-06-16 06:53:00
1:53 AM,77.0,35.1,22,29.79,10.0,SE,12.7,-,N/A,,Clear,140,2013-06-16 07:53:00
2:53 AM,75.0,35.1,23,29.78,10.0,SE,10.4,-,N/A,,Clear,140,2013-06-16 08:53:00
3:53 AM,75.9,36.0,23,29.81,10.0,SSE,12.7,-,N/A,,Clear,150,2013-06-16 09:53:00
4:53 AM,73.9,36.0,25,29.82,10.0,SSE,8.1,-,N/A,,Clear,150,2013-06-16 10:53:00
5:53 AM,72.0,36.0,27,29.84,10.0,SE,5.8,-,N/A,,Clear,140,2013-06-16 11:53:00
6:53 AM,73.9,37.0,26,29.86,10.0,Variable,4.6,-,N/A,,Clear,0,2013-06-16 12:53:00
7:53 AM,75.9,37.9,25,29.88,10.0,South,6.9,-,N/A,,Partly Cloudy,170,2013-06-16 13:53:00
8:53 AM,80.1,37.9,22,29.88,10.0,South,10.4,-,N/A,,Clear,170,2013-06-16 14:53:00
9:53 AM,81.0,37.0,21,29.89,10.0,South,6.9,-,N/A,,Clear,170,2013-06-16 15:53:00
10:53 AM,82.9,37.9,20,29.88,10.0,Variable,4.6,-,N/A,,Clear,0,2013-06-16 16:53:00
11:53 AM,87.1,30.0,13,29.87,10.0,WNW,10.4,-,N/A,,Clear,290,2013-06-16 17:53:00
12:53 PM,88.0,30.0,12,29.84,10.0,Variable,6.9,17.3,N/A,,Partly Cloudy,0,2013-06-16 18:53:00
1:53 PM,91.9,28.0,10,29.81,10.0,West,12.7,26.5,N/A,,Clear,270,2013-06-16 19:53:00
2:46 PM,93.2,21.2,7,30.00,10.0,WSW,13.8,23.0,N/A,,Clear,240,2013-06-16 20:46:00
2:53 PM,93.0,23.0,8,29.79,10.0,WSW,19.6,26.5,N/A,,Clear,250,2013-06-16 20:53:00
3:53 PM,91.0,21.9,8,29.78,10.0,SSW,6.9,23.0,N/A,,Clear,210,2013-06-16 21:53:00
4:53 PM,91.9,23.0,8,29.76,10.0,WSW,8.1,20.7,N/A,,Clear,240,2013-06-16 22:53:00
5:53 PM,93.0,19.9,7,29.74,10.0,West,13.8,-,N/A,,Clear,260,2013-06-16 23:53:00
6:53 PM,91.9,18.0,7,29.72,10.0,South,17.3,23.0,N/A,,Clear,190,2013-06-17 00:53:00
7:53 PM,90.0,17.1,7,29.73,10.0,WSW,11.5,-,N/A,,Clear,240,2013-06-17 01:53:00
8:53 PM,81.0,18.0,10,29.74,10.0,SSW,8.1,-,N/A,,Clear,210,2013-06-17 02:53:00
9:53 PM,78.1,19.0,11,29.75,10.0,SW,9.2,-,N/A,,Clear,220,2013-06-17 03:53:00
10:53 PM,73.9,19.9,13,29.77,10.0,SW,9.2,-,N/A,,Clear,220,2013-06-17 04:53:00
11:53 PM,73.9,21.0,14,29.77,10.0,SSW,9.2,-,N/A,,Clear,210,2013-06-17 05:53:00